Location: Muenchen
(48.1800°N, 11.5800°E)
Time: 23:25:16
(UTC+02:00)

ISS - Visible Passes

Search period start: 03 September 2015 00:00
Search period end: 13 September 2015 00:00
Orbit: 400 x 403 km, 51.6° (Epoch: 01 September)

Date Brightness Start Highest point End Pass type
(mag) Time Alt. Az. Time Alt. Az. Time Alt. Az.
08 Sep -0.2 05:58:45 10° SE 05:58:58 10° SE 05:59:19 10° SE visible
10 Sep -1.1 05:46:04 10° S 05:48:31 20° SE 05:51:00 10° E visible
11 Sep -0.6 04:54:17 10° SSE 04:55:27 12° SE 04:56:43 10° ESE visible
12 Sep -2.2 05:35:48 15° SSW 05:38:09 37° SSE 05:41:13 10° ENE visible
